Location: Bogis-Bossey
(46.3500°N, 6.1667°E)
Time: 17:33:39
(UTC+00:00)

Cosmos 1725 Rocket - Pass Details

Date: 17 August 2022
Orbit: 962 x 990 km, 82.9° (Epoch: 30 September)

Event Time Altitude Azimuth Distance (km) Brightness Sun altitude
Rises 19:41:34 0° 355° (N) 3,695 7.6 -10.1°
Reaches altitude 10° 19:44:12 10° 2° (N) 2,746 6.8 -10.5°
Maximum altitude 19:50:15 46° 75° (ENE) 1,297 4.4 -11.4°
Enters shadow 19:55:31 14° 145° (SE) 2,483 5.6 -12.2°
